When you browse on this site, cookies collect data to enhance your experience and personalize the content and advertising you see.
Visit our Privacy Policy to learn more. By continuing to use the site, you agree to this use of cookies and data.
  • In Hungary
  • List of Countries
  • For 7 days
  • Water Temperature
  • Satellite Maps
  • Weather Map
  • News
  • Weather Widgets
  • user-avatar
    Login

    Hourly Weather Tskhinvali

    Today, 21 January, Monday

    Time Temperature Precipitation Wind Pressure Humidity
    00:00 -3°C° 0 mm 2 mps 685 mmHg 68%
    01:00 -3°C° 0 mm 2 mps 685 mmHg 68%
    02:00 -3°C° 0 mm 2 mps 685 mmHg 69%
    03:00 -3°C° 0 mm 2 mps 685 mmHg 70%
    04:00 -3°C° 0 mm 2 mps 685 mmHg 70%
    05:00 -3°C° 0 mm 2 mps 685 mmHg 70%
    06:00 -4°C° 0 mm 2 mps 685 mmHg 69%
    07:00 -3°C° 0 mm 2 mps 685 mmHg 67%
    08:00 -2°C° 0 mm 2 mps 685 mmHg 65%
    09:00 -2°C° 0 mm 2 mps 684 mmHg 63%
    10:00 -1°C° 0 mm 2 mps 684 mmHg 60%
    11:00 +2°C° 0 mm 2 mps 684 mmHg 56%
    12:00 +2°C° 0 mm 3 mps 683 mmHg 53%
    13:00 +3°C° 0 mm 2 mps 683 mmHg 52%
    14:00 +3°C° 0 mm 2 mps 682 mmHg 52%
    15:00 +3°C° 0 mm 2 mps 682 mmHg 52%
    16:00 +2°C° 0 mm 2 mps 682 mmHg 55%
    17:00 -1°C° 0 mm 2 mps 682 mmHg 57%
    18:00 -2°C° 0 mm 2 mps 682 mmHg 60%
    19:00 -2°C° 0 mm 2 mps 682 mmHg 59%
    20:00 -2°C° 0 mm 2 mps 682 mmHg 58%
    21:00 -3°C° 0 mm 2 mps 682 mmHg 58%
    22:00 -3°C° 0 mm 2 mps 682 mmHg 57%
    23:00 -3°C° 0 mm 2 mps 682 mmHg 57%

    Tomorrow, 22 January, Tuesday

    Time Temperature Precipitation Wind Pressure Humidity
    00:00 -3°C° 0 mm 2 mps 682 mmHg 56%
    01:00 -3°C° 0 mm 2 mps 682 mmHg 55%
    02:00 -3°C° 0 mm 2 mps 682 mmHg 54%
    03:00 -3°C° 0 mm 2 mps 681 mmHg 53%
    04:00 -3°C° 0 mm 2 mps 681 mmHg 53%
    05:00 -3°C° 0 mm 2 mps 681 mmHg 53%
    06:00 -3°C° 0 mm 2 mps 681 mmHg 52%
    07:00 -2°C° 0 mm 2 mps 681 mmHg 52%
    08:00 -2°C° 0 mm 2 mps 682 mmHg 53%
    09:00 -1°C° 0 mm 2 mps 682 mmHg 53%
    10:00 +1°C° 0 mm 2 mps 682 mmHg 53%
    11:00 +1°C° 0 mm 3 mps 682 mmHg 54%
    12:00 +2°C° 0 mm 3 mps 682 mmHg 54%
    13:00 +2°C° 0 mm 3 mps 681 mmHg 59%
    14:00 +2°C° 0 mm 3 mps 681 mmHg 63%
    15:00 +1°C° 0 mm 4 mps 681 mmHg 67%
    16:00 +1°C° 0 mm 3 mps 681 mmHg 73%
    17:00 +1°C° 0 mm 2 mps 682 mmHg 79%
    18:00 -2°C° 0 mm 2 mps 682 mmHg 85%
    19:00 -2°C° 0 mm 2 mps 682 mmHg 83%
    20:00 0°C° 0 mm 1 mps 682 mmHg 82%
    21:00 0°C° 0 mm 1 mps 683 mmHg 80%
    22:00 0°C° 0 mm 1 mps 683 mmHg 79%
    23:00 0°C° 0 mm 1 mps 683 mmHg 78%

    Day after tomorrow, 23 January, Wednesday

    Time Temperature Precipitation Wind Pressure Humidity
    00:00 0°C° 0 mm 1 mps 683 mmHg 77%
    01:00 0°C° 0 mm 1 mps 683 mmHg 77%
    02:00 0°C° 0 mm 1 mps 683 mmHg 76%
    03:00 -1°C° 0 mm 1 mps 683 mmHg 75%
    04:00 -1°C° 0 mm 1 mps 683 mmHg 75%
    05:00 -1°C° 0 mm 1 mps 683 mmHg 74%
    06:00 -1°C° 0 mm 1 mps 683 mmHg 73%
    07:00 -2°C° 0 mm 2 mps 683 mmHg 71%
    08:00 -2°C° 0 mm 2 mps 683 mmHg 69%
    09:00 -1°C° 0 mm 2 mps 684 mmHg 67%
    10:00 +1°C° 0 mm 2 mps 684 mmHg 66%
    11:00 +1°C° 0 mm 3 mps 683 mmHg 65%
    12:00 +2°C° 0 mm 3 mps 683 mmHg 63%
    13:00 +2°C° 0 mm 3 mps 683 mmHg 63%
    14:00 +2°C° 0 mm 3 mps 683 mmHg 63%
    15:00 +2°C° 0 mm 3 mps 683 mmHg 63%
    16:00 0°C° 0 mm 3 mps 683 mmHg 66%
    17:00 -1°C° 0 mm 3 mps 683 mmHg 69%
    18:00 -2°C° 0 mm 2 mps 684 mmHg 72%
    19:00 -2°C° 0 mm 2 mps 684 mmHg 71%
    20:00 -2°C° 0 mm 2 mps 684 mmHg 70%
    21:00 -3°C° 0 mm 2 mps 684 mmHg 69%
    22:00 -3°C° 0 mm 2 mps 684 mmHg 70%
    23:00 -3°C° 0 mm 2 mps 685 mmHg 70%

    24 January, Thursday

    Time Temperature Precipitation Wind Pressure Humidity
    00:00 -3°C° 0 mm 2 mps 685 mmHg 70%
    01:00 -3°C° 0 mm 2 mps 684 mmHg 70%
    02:00 -3°C° 0 mm 2 mps 684 mmHg 70%
    03:00 -3°C° 0 mm 2 mps 684 mmHg 69%
    04:00 -3°C° 0 mm 2 mps 684 mmHg 68%
    05:00 -3°C° 0 mm 2 mps 684 mmHg 67%
    06:00 -3°C° 0 mm 2 mps 683 mmHg 66%
    07:00 -3°C° 0 mm 2 mps 683 mmHg 63%
    08:00 -2°C° 0 mm 2 mps 684 mmHg 60%
    09:00 -1°C° 0 mm 2 mps 684 mmHg 57%
    10:00 +1°C° 0 mm 2 mps 683 mmHg 55%
    11:00 +3°C° 0 mm 2 mps 683 mmHg 52%
    12:00 +4°C° 0 mm 2 mps 683 mmHg 49%
    13:00 +4°C° 0 mm 2 mps 682 mmHg 50%
    14:00 +4°C° 0 mm 2 mps 682 mmHg 51%
    15:00 +5°C° 0 mm 2 mps 681 mmHg 52%
    16:00 +3°C° 0 mm 2 mps 681 mmHg 54%
    17:00 +2°C° 0 mm 2 mps 681 mmHg 56%
    18:00 +1°C° 0 mm 2 mps 682 mmHg 58%
    19:00 +1°C° 0 mm 2 mps 682 mmHg 57%
    20:00 +1°C° 0 mm 2 mps 681 mmHg 56%
    21:00 -1°C° 0 mm 2 mps 681 mmHg 55%
    22:00 -1°C° 0 mm 2 mps 681 mmHg 54%
    23:00 -1°C° 0 mm 2 mps 681 mmHg 54%

    25 January, Friday

    Time Temperature Precipitation Wind Pressure Humidity
    00:00 -1°C° 0 mm 2 mps 681 mmHg 53%
    01:00 -1°C° 0 mm 2 mps 681 mmHg 53%
    02:00 -1°C° 0 mm 2 mps 681 mmHg 53%
    03:00 -1°C° 0 mm 2 mps 681 mmHg 53%
    04:00 +1°C° 0 mm 2 mps 681 mmHg 54%
    05:00 +1°C° 0 mm 2 mps 680 mmHg 54%
    06:00 +2°C° 0 mm 1 mps 680 mmHg 54%
    07:00 +2°C° 0 mm 1 mps 680 mmHg 55%
    08:00 +3°C° 0 mm 1 mps 681 mmHg 55%
    09:00 +3°C° 0 mm 1 mps 681 mmHg 55%
    10:00 +4°C° 0 mm 1 mps 681 mmHg 55%
    11:00 +5°C° 0 mm 1 mps 680 mmHg 55%
    12:00 +6°C° 0 mm 1 mps 680 mmHg 55%
    13:00 +6°C° 0 mm 1 mps 680 mmHg 57%
    14:00 +6°C° 0 mm 1 mps 680 mmHg 59%
    15:00 +5°C° 0 mm 0 mps 680 mmHg 61%
    16:00 +5°C° 0 mm 1 mps 680 mmHg 65%
    17:00 +5°C° 0 mm 1 mps 680 mmHg 68%
    18:00 +4°C° 0 mm 1 mps 680 mmHg 71%
    19:00 +4°C° 0 mm 1 mps 680 mmHg 72%
    20:00 +3°C° 0 mm 1 mps 680 mmHg 73%
    21:00 +3°C° 0 mm 1 mps 680 mmHg 74%
    22:00 +3°C° 0 mm 1 mps 680 mmHg 75%
    23:00 +3°C° 0 mm 1 mps 680 mmHg 76%

    26 January, Saturday

    Time Temperature Precipitation Wind Pressure Humidity
    00:00 +3°C° 0 mm 1 mps 680 mmHg 77%
    01:00 +2°C° 0 mm 1 mps 680 mmHg 77%
    02:00 +2°C° 0 mm 1 mps 680 mmHg 76%
    03:00 +2°C° 0 mm 1 mps 679 mmHg 76%
    04:00 +2°C° 0 mm 1 mps 679 mmHg 75%
    05:00 +2°C° 0 mm 1 mps 679 mmHg 74%
    06:00 +2°C° 0 mm 1 mps 679 mmHg 73%
    07:00 +3°C° 0 mm 1 mps 680 mmHg 70%
    08:00 +3°C° 0 mm 1 mps 680 mmHg 68%
    09:00 +4°C° 0 mm 1 mps 680 mmHg 65%
    10:00 +5°C° 0 mm 1 mps 679 mmHg 62%
    11:00 +6°C° 0 mm 1 mps 679 mmHg 60%
    12:00 +7°C° 0 mm 1 mps 679 mmHg 57%
    13:00 +7°C° 0 mm 1 mps 679 mmHg 59%
    14:00 +7°C° 0 mm 1 mps 678 mmHg 60%
    15:00 +7°C° 0 mm 1 mps 678 mmHg 62%
    16:00 +6°C° 0 mm 1 mps 678 mmHg 66%
    17:00 +5°C° 0 mm 1 mps 678 mmHg 70%
    18:00 +3°C° 0 mm 1 mps 678 mmHg 73%
    19:00 +3°C° 0 mm 1 mps 678 mmHg 74%
    20:00 +3°C° 0 mm 1 mps 679 mmHg 74%
    21:00 +3°C° 0 mm 1 mps 679 mmHg 75%
    22:00 +3°C° 0 mm 1 mps 679 mmHg 76%
    23:00 +2°C° 0 mm 1 mps 679 mmHg 76%
    Show more